Regional Weather Roundup
Issued by NWS

Home | Current Version | Previous Version | Graphics & Text | Print | Product List | Glossary On
Versions: 1 2 3 4 5 6 7 8 9 10 11 12 13 14 15 16 17 18 19 20 21 22 23 24 25 26 27 28 29 30 31 32 33 34 35 36 37 38 39 40 41 42 43 44 45 46 47 48 49 50
000
ASUS43 KOAX 101302
RWRNE

WEATHER ROUNDUP FOR NEBRASKA
NATIONAL WEATHER SERVICE OMAHA NE
700 AM CST SUN DEC 10 2017

NOTES: SATELLITE DATA IS BEING USED TO AUGMENT CLOUD COVER ABOVE
       12000 FEET.
       "FAIR" INDICATES FEW OR NO CLOUDS BELOW 12,000 FEET WITH NO
       SIGNIFICANT WEATHER AND/OR OBSTRUCTIONS TO VISIBILITY.


NEZ001>004-019>022-054>056-101400-
NEBRASKA PANHANDLE

CITY           SKY/WX    TMP DP  RH WIND       PRES   REMARKS
SCOTTSBLUFF    CLOUDY    23  10  57 NW8       30.36R WCI  14
ALLIANCE       CLOUDY    28  11  48 W14       30.29R WCI  17
CHADRON        CLEAR     37  12  35 SW8       30.29S WCI  31
GORDON         FAIR      37  15  40 W17       30.24S WCI  28
KIMBALL        CLOUDY    35   6  29 NW16      30.36S WCI  25
SIDNEY         CLEAR     34   8  33 W12       30.33R WCI  25
$$

NEZ057>060-069>072-079>082-101400-
SOUTHWEST NEBRASKA

CITY           SKY/WX    TMP DP  RH WIND       PRES   REMARKS
NORTH PLATTE   CLOUDY    22  14  71 NW8       30.24R WCI  12
IMPERIAL       CLOUDY    33   8  35 W9        30.29R WCI  25
LEXINGTON      CLEAR     36  13  39 NW17      30.21R WCI  26
MCCOOK         CLEAR     36  12  37 W16       30.26R WCI  26
OGALLALA       CLOUDY    32  13  45 W10       30.29R WCI  23
$$

NEZ005>010-023>029-035>040-094-101400-
NORTH CENTRAL NEBRASKA

CITY           SKY/WX    TMP DP  RH WIND       PRES   REMARKS
VALENTINE      CLEAR     35  17  47 W9        30.18R WCI  28
AINSWORTH      CLEAR     38  18  42 W15       30.15S WCI  30
BROKEN BOW     CLEAR     43  13  29 NW17      30.17R
O`NEILL        CLEAR     41  20  42 NW12      30.11R
ORD            CLEAR     43  15  32 NW13G25   30.13R
THEDFORD       CLEAR     37  15  39 W13G18    30.21R WCI  29
$$

NEZ041-046>049-061>064-073>077-083>087-101400-
SOUTH CENTRAL NEBRASKA

CITY           SKY/WX    TMP DP  RH WIND       PRES   REMARKS
GRAND ISLAND   CLEAR     39  17  41 W10       30.14R WCI  32
AURORA         CLEAR     38  17  44 W8        30.12R WCI  32
HASTINGS       CLEAR     37  15  40 W15       30.14R WCI  28
HEBRON         CLEAR     35  17  47 W7        30.14R WCI  30
HOLDREGE       CLEAR     37  15  40 NW12G17   30.20R WCI  30
KEARNEY        CLEAR     36  13  38 W14       30.18R WCI  27
$$

NEZ011>018-030>034-042>045-101400-
NORTHEAST NEBRASKA

CITY           SKY/WX    TMP DP  RH WIND       PRES   REMARKS
NORFOLK        CLOUDY    40  19  43 NW15      30.06R WCI  32
ALBION         CLEAR     39  19  43 NW10      30.10R WCI  33
BLAIR          CLOUDY    37  26  64 NW14      30.03R WCI  28
COLUMBUS       CLOUDY    40  20  44 NW15      30.09R WCI  32
FREMONT        CLOUDY    37  24  59 W10       30.06R WCI  29
TEKAMAH        CLOUDY    34  23  64 NW6       30.05R WCI  29
WAYNE          CLOUDY    32  22  65 NW8       30.05S WCI  25
$$

NEZ050>053-065>068-078-088>093-101400-
SOUTHEAST NEBRASKA

CITY           SKY/WX    TMP DP  RH WIND       PRES   REMARKS
LINCOLN        CLOUDY    37  19  48 W6        30.09R WCI  32
OMAHA EPPLEY   CLOUDY    38  23  55 NW12      30.04R WCI  30
BEATRICE       CLEAR     31  20  63 W6        30.10R WCI  25
FALLS CITY     CLEAR     34  20  56 W12       30.06R WCI  25
NEBRASKA CITY  CLOUDY    36  22  58 W12       30.05R WCI  27
PLATTSMOUTH    CLOUDY    33  23  67 W9        30.04R WCI  25
$$

NEZ044-045-051>053-067-101400-
OMAHA AREA

CITY           SKY/WX    TMP DP  RH WIND       PRES   REMARKS
OMAHA EPPLEY   CLOUDY    38  23  55 NW12      30.04R WCI  30
BLAIR          CLOUDY    37  26  64 NW14      30.03R WCI  28
FREMONT        CLOUDY    37  24  59 W10       30.06R WCI  29
MILLARD        CLOUDY    36  24  60 NW3       30.05R
OFFUTT AFB     CLOUDY    30  21  68 W9        30.04R WCI  22
PLATTSMOUTH    CLOUDY    33  23  67 W9        30.04R WCI  25
WAHOO          FAIR      38  21  50 NW13      30.06R WCI  30
$$




USA.gov is the U.S. government's official web portal to all federal, state and local government web resources and services.